1497585600.62,16382,18.06,73964.8,2.57,-28.05,-27.89,0,*78
1497585601.85,16383,18.06,73964.0,2.57,-28.05,-27.89,0,*79
1497585603.13,16384,18.06,73968.5,2.59,-28.05,-27.83,0,*7A
1497585604.4,16385,18.06,73966.0,2.59,-27.99,-27.83,0,*71
1497585605.65,16386,18.06,73964.3,2.59,-27.83,-27.71,0,*74
1497585606.87,16387,18.06,73964.8,2.59,-27.89,-27.71,0,*7F
1497585608.09,16388,18.06,73964.8,2.61,-27.83,-27.67,0,*76
1497585609.32,16389,18.06,73970.3,2.59,-27.89,-27.67,0,*76
1497585610.57,16390,18.06,73964.0,2.59,-27.99,-27.67,0,*7F
1497585611.77,16391,18.06,73966.0,2.61,-27.93,-27.51,0,*7A
1497585612.99,16392,18.06,73960.8,2.59,-27.89,-27.67,0,*7C
1497585614.22,16393,18.06,73954.5,2.61,-27.83,-27.67,0,*7C
1497585615.44,16394,18.06,73962.5,2.59,-27.89,-27.55,0,*7B
1497585616.68,16395,18.06,73970.0,2.61,-27.83,-27.61,0,*7C
1497585617.94,16396,18.06,73960.0,2.59,-27.99,-27.67,0,*79
1497585619.18,16397,18.06,73968.5,2.59,-27.83,-27.71,0,*74
1497585620.4,16398,18.06,73972.0,2.59,-27.71,-27.71,0,*76
1497585621.63,16399,18.06,73968.8,2.61,-27.77,-27.83,0,*77
1497585622.9,16400,18.06,73968.5,2.59,-27.99,-27.83,0,*7B
1497585624.17,16401,18.06,73968.3,2.59,-28.09,-27.83,0,*7C
1497585625.43,16402,18.06,73976.5,2.59,-28.05,-27.77,0,*78
1497585626.68,16403,18.06,73964.5,2.59,-28.09,-27.89,0,*74
1497585627.92,16404,18.06,73966.3,2.61,-27.99,-27.83,0,*74
1497585629.15,16405,18.06,73964.0,2.61,-27.93,-27.83,0,*7F
1497585630.4,16406,18.06,73964.0,2.59,-28.05,-27.89,0,*7D
1497585631.65,16407,18.06,73968.8,2.59,-28.05,-27.89,0,*7C
1497585632.91,16408,18.06,73966.3,2.59,-28.09,-27.89,0,*7F
1497585634.16,16409,18.06,73958.0,2.59,-28.09,-27.89,0,*7E
1497585635.4,16410,18.06,73952.8,2.61,-27.99,-27.83,0,*71
1497585636.68,16411,18.06,73962.3,2.59,-27.99,-27.83,0,*7B
1497585637.92,16412,18.06,73962.0,2.59,-28.09,-27.77,0,*75
1497585639.17,16413,18.06,73964.5,2.59,-28.09,-27.89,0,*75
1497585640.42,16414,18.06,73964.0,2.61,-28.05,-27.83,0,*7F
1497585641.68,16415,18.06,73974.5,2.61,-28.05,-27.83,0,*7E
1497585642.93,16416,18.06,73966.0,2.61,-28.25,-27.99,0,*74
1497585644.15,16417,18.06,73958.0,2.61,-28.15,-27.83,0,*7D
1497585645.4,16418,18.06,73952.0,2.59,-28.05,-27.89,0,*72
1497585646.63,16419,18.06,73954.0,2.61,-28.05,-27.77,0,*79
1497585647.88,16420,18.06,73950.8,2.59,-28.09,-27.89,0,*75
1497585649.13,16421,18.06,73964.5,2.59,-28.09,-27.89,0,*74
1497585650.38,16422,18.06,73966.3,2.61,-27.99,-27.83,0,*70
1497585651.63,16423,18.06,73968.0,2.59,-28.09,-27.89,0,*76
1497585652.87,16424,18.06,73968.0,2.61,-27.99,-27.83,0,*76
1497585654.13,16425,18.06,73966.8,2.59,-28.05,-27.89,0,*7C
1497585655.38,16426,18.06,73968.0,2.61,-28.05,-27.83,0,*7E
1497585656.66,16427,18.06,73972.5,2.59,-28.09,-27.99,0,*73
1497585657.94,16428,18.06,73968.0,2.59,-28.25,-27.99,0,*72
1497585659.22,16429,18.06,73968.0,2.59,-28.25,-27.99,0,*73
1497585660.44,16430,18.06,73968.3,2.61,-28.15,-27.99,0,*73
1497585661.72,16431,18.06,73964.8,2.59,-28.25,-27.99,0,*7A
1497585663.0,16432,18.06,73966.8,2.59,-28.25,-28.05,0,*73
1497585664.29,16433,18.06,73972.0,2.59,-28.25,-28.05,0,*72
1497585665.54,16434,18.06,73968.3,2.59,-28.25,-27.89,0,*7E
1497585666.82,16435,18.06,73964.5,2.59,-28.25,-27.99,0,*7E
1497585668.04,16436,18.06,73960.0,2.61,-28.15,-27.99,0,*75
1497585669.27,16437,18.06,73962.5,2.61,-28.05,-27.93,0,*7F
1497585670.52,16438,18.13,73962.8,2.59,-28.21,-27.89,0,*76
1497585671.77,16439,18.06,73962.8,2.59,-28.09,-27.89,0,*7D
1497585673.05,16440,18.06,73960.0,2.59,-28.05,-27.83,0,*75
1497585674.28,16441,18.06,73962.5,2.61,-27.99,-27.67,0,*7F
1497585675.53,16442,18.06,73962.0,2.59,-28.05,-27.67,0,*7D
1497585676.78,16443,18.06,73966.8,2.59,-27.99,-27.55,0,*77
1497585678.03,16444,18.06,73962.0,2.59,-27.89,-27.35,0,*77
1497585679.31,16445,18.06,73964.8,2.59,-27.99,-27.39,0,*7B
1497585680.55,16446,18.06,73964.0,2.61,-27.83,-27.19,0,*7A
1497585681.77,16447,18.06,73958.8,2.61,-27.83,-27.03,0,*70
1497585683.03,16448,18.06,73956.5,2.59,-27.67,-26.97,0,*72
1497585684.28,16449,18.06,73960.8,2.61,-27.45,-26.97,0,*78
1497585685.5,16450,18.06,73960.5,2.61,-27.29,-27.19,0,*7D
1497585686.71,16451,18.06,73962.5,2.61,-27.29,-27.29,0,*7F
1497585687.96,16452,18.06,73960.0,2.61,-27.45,-27.45,0,*7C
1497585689.18,16453,18.06,73962.0,2.61,-27.51,-27.61,0,*7E
1497585690.4,16454,18.06,73964.5,2.61,-27.51,-27.61,0,*79
1497585691.6,16455,18.06,73964.8,2.61,-27.67,-27.77,0,*7A
1497585692.82,16456,18.06,73962.3,2.61,-27.83,-27.67,0,*72
1497585694.06,16457,18.06,73960.8,2.63,-27.83,-27.77,0,*70
1497585695.28,16458,18.06,73960.8,2.63,-27.77,-27.77,0,*74
1497585696.53,16459,18.06,73960.5,2.63,-27.83,-27.67,0,*7F
1497585697.73,16460,18.06,73960.8,2.61,-27.93,-27.67,0,*76
1497585698.99,16461,18.06,73962.5,2.65,-27.61,-27.39,0,*75
1497585700.24,16462,18.13,73966.5,2.63,-27.67,-27.35,0,*7A
1497585701.48,16463,18.06,73964.5,2.63,-27.77,-27.19,0,*74
1497585702.76,16464,18.06,73964.3,2.63,-27.45,-26.97,0,*75
1497585704.03,16465,18.06,73964.3,2.63,-27.35,-26.93,0,*77
1497585705.29,16466,18.06,73964.8,2.63,-27.19,-26.77,0,*70
1497585706.52,16467,18.06,73964.8,2.65,-27.29,-26.55,0,*74
1497585707.75,16468,18.06,73962.0,2.63,-27.19,-26.49,0,*73
1497585708.97,16469,18.06,73964.3,2.63,-27.03,-26.49,0,*79
1497585710.25,16470,18.06,73964.0,2.63,-26.97,-26.93,0,*7A
1497585711.47,16471,18.06,73962.5,2.63,-27.13,-27.29,0,*76
1497585712.7,16472,18.06,73960.5,2.65,-27.23,-27.55,0,*7B
1497585713.92,16473,18.06,73960.5,2.65,-27.55,-27.61,0,*7C
1497585715.14,16474,18.06,73962.3,2.63,-27.77,-27.77,0,*7A
1497585716.41,16475,18.06,73958.0,2.63,-27.99,-27.83,0,*70
1497585717.66,16476,18.06,73960.3,2.63,-28.05,-27.93,0,*78
1497585718.88,16477,18.06,73962.8,2.65,-27.99,-27.77,0,*7F
1497585720.1,16478,18.06,73962.0,2.65,-27.99,-27.77,0,*70
1497585721.3,16479,18.06,73962.3,2.65,-27.77,-27.77,0,*71
1497585722.52,16480,18.06,73956.3,2.63,-27.93,-27.77,0,*7B
1497585723.74,16481,18.06,73960.3,2.63,-27.93,-27.77,0,*7A
1497585724.94,16482,18.06,73960.8,2.65,-27.71,-27.71,0,*75
1497585726.17,16483,18.06,73966.5,2.65,-27.89,-27.61,0,*72
1497585727.37,16484,18.06,73962.5,2.65,-27.77,-27.71,0,*75
1497585728.61,16485,18.06,73962.3,2.63,-27.99,-27.77,0,*74
1497585729.84,16486,18.06,73962.0,2.67,-27.89,-27.71,0,*74
1497585731.04,16487,18.06,73964.5,2.65,-27.71,-27.67,0,*77
1497585732.24,16488,18.06,73958.5,2.65,-27.71,-27.55,0,*79
1497585733.47,16489,18.06,73960.0,2.65,-27.77,-27.61,0,*79
1497585734.71,16490,18.06,73960.5,2.67,-27.83,-27.55,0,*7F
1497585735.94,16491,18.06,73962.8,2.69,-27.71,-27.55,0,*7D
1497585737.17,16492,18.06,73956.3,2.67,-27.67,-27.55,0,*77
1497585738.39,16493,18.06,73956.3,2.69,-27.55,-27.51,0,*7D
1497585739.64,16494,18.06,73958.8,2.67,-27.51,-27.39,0,*7E
1497585740.87,16495,18.06,73958.0,2.67,-27.51,-27.51,0,*71
1497585742.09,16496,18.06,73958.3,2.67,-27.51,-27.51,0,*72
1497585743.31,16497,18.06,73960.5,2.67,-27.51,-27.51,0,*73
1497585744.54,16498,18.06,73960.5,2.69,-27.51,-27.55,0,*76
1497585745.79,16499,18.06,73958.0,2.69,-27.55,-27.39,0,*79
1497585747.05,16500,18.06,73964.3,2.69,-27.55,-27.39,0,*78
1497585748.27,16501,18.13,73964.0,2.69,-27.55,-27.51,0,*77
1497585749.5,16502,18.06,73962.0,2.67,-27.67,-27.55,0,*7F
1497585750.74,16503,18.06,73960.8,2.69,-27.67,-27.67,0,*71
1497585751.98,16504,18.06,73964.3,2.67,-27.83,-27.67,0,*72
1497585753.24,16505,18.06,73966.5,2.69,-27.83,-27.67,0,*7D
1497585754.46,16506,18.06,73966.8,2.69,-27.89,-27.71,0,*73
1497585755.69,16507,18.06,73972.8,2.69,-27.93,-27.71,0,*79
1497585756.94,16508,18.06,73966.8,2.71,-27.99,-27.83,0,*78
1497585758.2,16509,18.06,73962.3,2.69,-28.05,-27.89,0,*70
1497585759.4,16510,18.06,73962.8,2.71,-27.89,-27.67,0,*7A
1497585760.63,16511,18.06,73960.5,2.71,-28.05,-27.77,0,*71
1497585761.89,16512,18.06,73956.3,2.69,-28.09,-27.89,0,*76
1497585763.14,16513,18.06,73958.3,2.69,-28.05,-27.93,0,*70
1497585764.42,16514,18.13,73956.5,2.69,-28.05,-27.83,0,*76
1497585765.63,16515,18.06,73952.8,2.71,-27.77,-27.67,0,*7E
1497585766.85,16516,18.06,73954.3,2.67,-27.71,-27.67,0,*7C
1497585768.09,16517,18.06,73954.0,2.69,-27.71,-27.67,0,*73
1497585769.35,16518,18.06,73950.3,2.73,-27.67,-27.61,0,*76
1497585770.58,16519,18.06,73952.5,2.71,-27.77,-27.61,0,*74
1497585771.78,16520,18.06,73952.8,2.71,-27.77,-27.67,0,*78
1497585772.99,16521,18.06,73948.0,2.71,-27.67,-27.67,0,*78
1497585774.22,16522,18.06,73946.0,2.71,-27.77,-27.61,0,*7C
1497585775.45,16523,18.06,73936.3,2.71,-27.67,-27.61,0,*7C
1497585776.71,16524,18.06,73938.5,2.73,-27.67,-27.61,0,*79
1497585777.94,16525,18.06,73942.5,2.71,-27.77,-27.61,0,*7B
1497585779.17,16526,18.06,73946.5,2.71,-27.67,-27.61,0,*79
1497585780.4,16527,18.06,73942.0,2.71,-27.77,-27.61,0,*79
1497585781.66,16528,18.06,73950.0,2.73,-27.67,-27.61,0,*75
1497585782.89,16529,18.06,73952.0,2.71,-27.67,-27.61,0,*76
1497585784.1,16530,18.06,73948.3,2.71,-27.67,-27.67,0,*78
1497585785.31,16531,18.06,73962.0,2.71,-27.67,-27.67,0,*79
1497585786.57,16532,18.06,73960.5,2.73,-27.77,-27.61,0,*7F
1497585787.79,16533,18.06,73962.0,2.73,-27.77,-27.77,0,*79
1497585789.05,16534,18.06,73960.0,2.73,-27.99,-27.89,0,*7F
1497585790.31,16535,18.06,73960.0,2.73,-28.05,-27.89,0,*74
1497585791.57,16536,18.06,73956.3,2.71,-28.05,-27.83,0,*7F
1497585792.85,16537,18.06,73960.5,2.73,-27.99,-27.83,0,*76
1497585794.07,16538,18.06,73958.8,2.71,-27.99,-27.89,0,*71
1497585795.33,16539,18.06,73956.8,2.71,-28.05,-27.99,0,*7B
1497585796.59,16540,18.06,73952.0,2.71,-27.99,-27.99,0,*7F
1497585797.84,16541,18.06,73956.8,2.73,-27.99,-27.89,0,*7D
1497585799.1,16542,18.06,73956.3,2.73,-27.99,-27.89,0,*7E
1497585800.36,16543,18.06,73958.8,2.71,-28.05,-28.05,0,*7C
1497585801.58,16544,18.06,73956.5,2.71,-27.99,-27.89,0,*7A
1497585802.84,16545,18.06,73960.0,2.71,-28.05,-27.99,0,*70
1497585804.1,16546,18.06,73960.8,2.71,-28.05,-28.05,0,*79
1497585805.39,16547,18.06,73958.3,2.73,-27.99,-28.05,0,*70
1497585806.64,16548,18.06,73954.0,2.71,-28.05,-28.05,0,*77
1497585807.9,16549,18.06,73948.0,2.71,-27.99,-27.99,0,*76
1497585809.12,16550,18.06,73948.0,2.71,-27.99,-27.89,0,*7F
1497585810.36,16551,18.06,73954.3,2.73,-27.89,-27.89,0,*7D
1497585811.56,16552,18.06,73952.8,2.71,-27.89,-27.89,0,*7C
1497585812.76,16553,18.06,73952.0,2.71,-27.89,-27.89,0,*7D
1497585814.05,16554,18.06,73958.8,2.73,-28.05,-27.99,0,*72
1497585815.3,16555,18.06,73954.5,2.73,-27.99,-27.89,0,*78
1497585816.56,16556,18.06,73950.0,2.71,-27.99,-27.99,0,*78
1497585817.81,16557,18.06,73948.8,2.71,-27.99,-27.99,0,*79
1497585819.09,16558,18.06,73936.8,2.73,-27.99,-27.99,0,*74
1497585820.34,16559,18.06,73942.3,2.71,-27.99,-27.83,0,*7C
1497585821.6,16560,18.06,73946.5,2.73,-27.83,-27.67,0,*75
1497585822.85,16561,18.06,73944.5,2.71,-27.83,-27.83,0,*7C
1497585824.1,16562,18.06,73940.0,2.71,-28.05,-27.99,0,*75
1497585825.39,16563,18.06,73950.8,2.73,-28.05,-28.05,0,*7C
1497585826.65,16564,18.06,73946.3,2.71,-27.99,-27.99,0,*79
1497585827.93,16565,18.06,73950.0,2.73,-28.05,-28.05,0,*7A
1497585829.2,16566,18.06,73956.3,2.73,-28.21,-28.15,0,*7E
1497585830.43,16567,18.06,73952.0,2.71,-28.15,-28.21,0,*7D
1497585831.69,16568,18.06,73950.8,2.73,-28.15,-28.21,0,*70
1497585832.92,16569,18.13,73948.3,2.73,-28.15,-28.15,0,*76
1497585834.13,16570,18.06,73948.5,2.71,-28.15,-28.15,0,*7C
1497585835.36,16571,18.06,73948.3,2.71,-28.15,-28.05,0,*7C
1497585836.56,16572,18.06,73942.3,2.71,-28.15,-28.15,0,*7E
1497585837.79,16573,18.06,73950.8,2.71,-28.15,-28.21,0,*78
1497585838.99,16574,18.06,73950.3,2.71,-28.15,-28.15,0,*78
1497585840.22,16575,18.06,73948.3,2.71,-28.15,-28.05,0,*78
1497585841.49,16576,18.06,73948.8,2.73,-28.05,-28.15,0,*79
1497585842.72,16577,18.06,73954.3,2.71,-28.05,-28.15,0,*7A
1497585843.96,16578,18.06,73958.5,2.71,-28.05,-28.15,0,*75
1497585845.22,16579,18.06,73962.8,2.71,-28.05,-28.05,0,*75
1497585846.45,16580,18.06,73960.5,2.71,-28.05,-28.15,0,*72
1497585847.68,16581,18.06,73964.5,2.71,-28.05,-28.15,0,*73
1497585848.91,16582,18.06,73962.0,2.71,-28.15,-28.21,0,*76
1497585850.14,16583,18.13,73964.8,2.71,-28.21,-28.37,0,*77
1497585851.38,16584,18.06,73960.0,2.71,-28.37,-28.63,0,*76
1497585852.58,16585,18.06,73960.3,2.71,-28.31,-28.53,0,*72
1497585853.81,16586,18.06,73962.8,2.71,-28.37,-28.47,0,*72
1497585855.06,16587,18.06,73962.8,2.69,-28.37,-28.43,0,*7E
1497585856.31,16588,18.06,73962.8,2.67,-28.53,-28.59,0,*76
1497585857.6,16589,18.13,73964.3,2.69,-28.21,-28.21,0,*73
1497585858.89,16590,18.06,73960.5,2.69,-28.21,-28.21,0,*7B
1497585860.17,16591,18.06,73958.0,2.69,-28.21,-28.09,0,*70
1497585861.45,16592,18.06,73960.8,2.69,-28.21,-28.05,0,*7F
1497585862.73,16593,18.06,73954.0,2.67,-28.09,-28.05,0,*7A
1497585863.98,16594,18.06,73948.8,2.67,-28.21,-27.93,0,*77
1497585865.24,16595,18.06,73956.5,2.69,-28.21,-27.93,0,*78
1497585866.49,16596,18.06,73952.8,2.67,-28.21,-27.93,0,*75
1497585867.74,16597,18.13,73946.5,2.67,-28.09,-27.89,0,*75
1497585868.99,16598,18.06,73940.3,2.67,-28.05,-27.89,0,*76
1497585870.25,16599,18.13,73932.8,2.69,-28.05,-27.93,0,*72
1497585871.53,16600,18.06,73932.5,2.69,-28.09,-28.05,0,*7D
1497585872.79,16601,18.13,73944.0,2.67,-27.93,-28.05,0,*7E
1497585874.06,16602,18.06,73940.5,2.67,-28.05,-28.09,0,*71
1497585875.34,16603,18.06,73918.5,2.69,-28.09,-28.09,0,*72
1497585876.62,16604,18.06,73942.0,2.67,-28.09,-28.21,0,*71
1497585877.9,16605,18.06,73948.8,2.69,-28.05,-28.09,0,*78
1497585879.18,16606,18.13,73950.3,2.69,-28.09,-28.09,0,*77
1497585880.46,16607,18.06,73974.3,2.69,-28.05,-28.09,0,*7A
1497585881.74,16608,18.06,73972.5,2.67,-28.05,-28.05,0,*77
1497585883.03,16609,18.06,73970.5,2.69,-28.09,-28.25,0,*76
1497585884.31,16610,18.06,73970.5,2.67,-28.25,-28.25,0,*7E
1497585885.53,16611,18.13,73962.3,2.67,-28.37,-28.37,0,*7F
1497585886.81,16612,18.13,73962.3,2.67,-28.21,-28.25,0,*78
1497585888.09,16613,18.06,73960.8,2.67,-28.21,-28.09,0,*77
1497585889.38,16614,18.06,73960.0,2.69,-28.09,-28.05,0,*78
1497585890.66,16615,18.06,73956.3,2.69,-28.05,-28.05,0,*75
1497585891.94,16616,18.13,73952.0,2.67,-28.09,-28.25,0,*76
1497585893.22,16617,18.06,73950.0,2.67,-28.25,-28.25,0,*79
1497585894.5,16618,18.06,73946.0,2.67,-28.21,-28.25,0,*72
1497585895.78,16619,18.06,73942.3,2.67,-28.21,-28.25,0,*73
1497585897.06,16620,18.13,73942.3,2.67,-28.25,-28.21,0,*79
1497585898.3,16621,18.06,73942.5,2.65,-28.25,-28.31,0,*7B
1497585899.58,16622,18.06,73942.5,2.67,-28.21,-28.25,0,*7B
1497585900.86,16623,18.13,73940.8,2.67,-28.21,-28.25,0,*7A
1497585902.14,16624,18.06,73938.5,2.67,-28.21,-28.43,0,*7D
1497585903.42,16625,18.13,73940.0,2.67,-28.21,-28.21,0,*78
1497585904.7,16626,18.13,73930.0,2.67,-28.21,-28.21,0,*7B
1497585905.95,16627,18.06,73932.5,2.67,-28.21,-28.37,0,*7D
1497585907.21,16628,18.06,73936.5,2.67,-28.21,-28.37,0,*72
1497585908.44,16629,18.06,73940.3,2.65,-28.25,-28.31,0,*73
1497585909.67,16630,18.13,73946.0,2.65,-28.15,-28.25,0,*7D
1497585910.9,16631,18.13,73940.0,2.65,-28.15,-28.25,0,*7C
1497585912.18,16632,18.13,73950.0,2.67,-28.09,-28.25,0,*70
1497585913.38,16633,18.13,73946.0,2.65,-28.15,-28.31,0,*7B
1497585914.66,16634,18.06,73940.0,2.67,-28.21,-28.25,0,*7C
1497585915.94,16635,18.13,73934.3,2.67,-28.25,-28.43,0,*79
1497585917.22,16636,18.13,73938.3,2.67,-28.21,-28.25,0,*7E
1497585918.48,16637,18.06,73946.5,2.65,-28.25,-28.25,0,*79
1497585919.73,16638,18.13,73948.8,2.65,-28.25,-28.43,0,*76
1497585920.93,16639,18.13,73942.8,2.65,-28.31,-28.53,0,*73
1497585922.18,16640,18.13,73934.3,2.65,-28.43,-28.47,0,*7D
1497585923.41,16641,18.13,73936.5,2.65,-28.25,-28.31,0,*7D
1497585924.63,16642,18.13,73940.8,2.65,-28.31,-28.43,0,*7E
1497585925.89,16643,18.06,73944.0,2.65,-28.25,-28.25,0,*7A
1497585927.12,16644,18.13,73946.0,2.63,-28.31,-28.31,0,*7B
1497585928.36,16645,18.06,73942.0,2.65,-28.43,-28.47,0,*78
1497585929.58,16646,18.06,73942.3,2.63,-28.31,-28.53,0,*7D
1497585930.84,16647,18.13,73938.3,2.65,-28.25,-28.43,0,*7E
1497585932.09,16648,18.06,73932.3,2.65,-28.25,-28.43,0,*71
1497585933.34,16649,18.13,73936.5,2.65,-28.25,-28.43,0,*70
1497585934.55,16650,18.13,73936.8,2.65,-28.31,-28.31,0,*78
1497585935.8,16651,18.13,73934.3,2.65,-28.25,-28.43,0,*79
1497585937.02,16652,18.13,73938.0,2.63,-28.31,-28.37,0,*7A
1497585938.25,16653,18.06,73932.3,2.65,-28.25,-28.31,0,*7E
1497585939.47,16654,18.06,73936.8,2.63,-28.31,-28.37,0,*7C
1497585940.73,16655,18.13,73946.3,2.65,-28.25,-28.25,0,*7D
1497585941.93,16656,18.13,73944.3,2.65,-28.15,-28.37,0,*7E
1497585943.18,16657,18.06,73942.3,2.65,-28.25,-28.43,0,*7F
1497585944.43,16658,18.06,73942.0,2.63,-28.31,-28.47,0,*77
1497585945.68,16659,18.13,73946.5,2.65,-28.25,-28.25,0,*71
1497585946.91,16660,18.13,73938.8,2.63,-28.31,-28.31,0,*7D
1497585948.14,16661,18.06,73936.0,2.65,-28.15,-28.25,0,*79
1497585949.34,16662,18.13,73936.5,2.65,-28.15,-28.15,0,*79
1497585950.59,16663,18.13,73934.5,2.63,-28.15,-28.21,0,*79
1497585951.81,16664,18.13,73940.0,2.65,-28.15,-28.09,0,*72
1497585953.02,16665,18.06,73938.8,2.65,-28.15,-28.15,0,*7E
1497585954.25,16666,18.06,73942.3,2.65,-28.15,-28.25,0,*7E
1497585955.46,16667,18.13,73942.3,2.63,-28.31,-28.37,0,*7C
1497585956.68,16668,18.06,73944.0,2.63,-28.31,-28.37,0,*73
1497585957.93,16669,18.13,73944.5,2.63,-28.47,-28.53,0,*71
1497585959.15,16670,18.13,73944.0,2.63,-28.37,-28.53,0,*7E
1497585960.4,16671,18.13,73946.5,2.63,-28.37,-28.47,0,*7A
1497585961.6,16672,18.13,73946.3,2.65,-28.31,-28.37,0,*7E
1497585962.85,16673,18.13,73944.5,2.65,-28.25,-28.25,0,*79
1497585964.08,16674,18.13,73944.0,2.63,-28.31,-28.31,0,*78
1497585965.3,16675,18.13,73946.5,2.63,-28.31,-28.31,0,*79
1497585966.53,16676,18.13,73942.5,2.63,-28.31,-28.31,0,*7A
1497585967.75,16677,18.13,73946.0,2.63,-27.93,-27.93,0,*7B
1497585969.0,16678,18.13,73950.8,2.63,-28.15,-28.21,0,*73
1497585970.23,16679,18.13,73946.3,2.65,-28.09,-28.15,0,*7E
1497585971.46,16680,18.13,73944.5,2.65,-28.15,-28.21,0,*72
1497585972.73,16681,18.13,73938.0,2.63,-28.21,-28.21,0,*72
1497585974.01,16682,18.06,73942.8,2.63,-28.05,-28.05,0,*71
1497585975.24,16683,18.13,73946.3,2.63,-28.15,-28.15,0,*70
1497585976.52,16684,18.13,73946.3,2.63,-28.21,-28.21,0,*77
1497585977.73,16685,18.13,73940.3,2.63,-28.31,-28.37,0,*70
1497585978.96,16686,18.13,73946.3,2.63,-28.31,-28.31,0,*75
1497585980.18,16687,18.06,73940.5,2.63,-28.31,-28.37,0,*72
1497585981.46,16688,18.13,73936.8,2.63,-28.21,-28.21,0,*7B
1497585982.68,16689,18.13,73938.0,2.65,-28.15,-28.25,0,*7F
1497585983.91,16690,18.13,73946.8,2.65,-28.15,-28.09,0,*79
1497585985.16,16691,18.13,73944.3,2.63,-28.21,-28.15,0,*74
1497585986.42,16692,18.13,73950.3,2.63,-28.21,-28.15,0,*77
1497585987.67,16693,18.13,73952.3,2.65,-28.09,-28.25,0,*79
1497585988.88,16694,18.13,73950.0,2.65,-28.15,-28.15,0,*70
1497585990.08,16695,18.13,73948.3,2.65,-28.15,-28.15,0,*71
1497585991.34,16696,18.13,73946.5,2.65,-28.25,-28.25,0,*72
1497585992.56,16697,18.13,73946.5,2.65,-28.31,-28.47,0,*72
1497585993.81,16698,18.13,73946.5,2.63,-28.31,-28.47,0,*7B
1497585995.03,16699,18.13,73950.5,2.63,-28.37,-28.31,0,*7D
1497585996.26,16700,18.13,73948.3,2.63,-28.37,-28.37,0,*7A
1497585997.48,16701,18.13,73950.8,2.63,-28.31,-28.37,0,*7D
1497585998.72,16702,18.13,73946.8,2.63,-28.37,-28.47,0,*7F
1497585999.97,16703,18.13,73950.8,2.63,-28.31,-28.47,0,*78
1497586001.19,16704,18.13,73946.0,2.63,-28.37,-28.37,0,*7E
1497586002.42,16705,18.06,73944.5,2.63,-28.37,-28.31,0,*79
1497586003.64,16706,18.13,73948.0,2.63,-28.31,-28.31,0,*7C
1497586004.87,16707,18.13,73948.3,2.63,-28.31,-28.31,0,*7D
1497586006.13,16708,18.13,73948.0,2.65,-28.25,-28.25,0,*74
1497586007.39,16709,18.13,73948.8,2.65,-28.25,-28.25,0,*75
1497586008.61,16710,18.06,73946.5,2.65,-28.31,-28.21,0,*7C
1497586009.84,16711,18.06,73944.8,2.63,-28.31,-28.15,0,*7C
1497586011.07,16712,18.13,73946.3,2.65,-28.25,-28.15,0,*7C
1497586012.32,16713,18.13,73950.0,2.63,-28.31,-28.21,0,*79
1497586013.55,16714,18.13,73954.8,2.63,-28.31,-28.15,0,*79
1497586014.79,16715,18.13,73954.5,2.63,-28.31,-28.21,0,*7F
1497586016.02,16716,18.06,73950.3,2.63,-28.31,-28.31,0,*7D
1497586017.25,16717,18.13,73952.3,2.65,-28.25,-28.31,0,*7F
1497586018.48,16718,18.13,73954.5,2.65,-28.31,-28.25,0,*70
1497586019.73,16719,18.13,73958.8,2.63,-28.31,-28.21,0,*73
1497586020.96,16720,18.06,73958.3,2.63,-28.37,-28.31,0,*7E
1497586022.21,16721,18.13,73958.8,2.63,-28.31,-28.21,0,*78
1497586023.46,16722,18.13,73958.8,2.65,-28.25,-28.09,0,*72
1497586024.74,16723,18.13,73952.8,2.63,-28.21,-28.21,0,*7B
1497586025.97,16724,18.13,73958.3,2.63,-28.31,-28.15,0,*7A
1497586027.22,16725,18.13,73958.8,2.63,-28.21,-28.15,0,*7A
1497586028.48,16726,18.13,73956.5,2.63,-28.21,-28.15,0,*79
1497586029.7,16727,18.13,73956.0,2.63,-28.31,-28.31,0,*7F
1497586030.92,16728,18.06,73950.8,2.63,-28.31,-28.15,0,*76
1497586032.15,16729,18.13,73954.3,2.65,-28.15,-28.09,0,*7A
1497586033.35,16730,18.13,73956.5,2.65,-28.15,-27.93,0,*7E
1497586034.63,16731,18.06,73954.8,2.63,-28.21,-27.99,0,*74
1497586035.9,16732,18.13,73962.8,2.63,-28.21,-27.99,0,*77
1497586037.18,16733,18.13,73958.3,2.63,-28.21,-28.05,0,*7C
1497586038.45,16734,18.06,73950.0,2.63,-28.21,-28.09,0,*77
1497586039.7,16735,18.13,73954.0,2.63,-28.15,-28.05,0,*7D
1497586040.98,16736,18.06,73952.0,2.63,-28.21,-28.05,0,*79
1497586042.21,16737,18.13,73958.5,2.65,-28.09,-27.93,0,*74
1497586043.45,16738,18.13,73956.0,2.63,-28.15,-27.99,0,*7A
1497586044.73,16739,18.13,73958.5,2.63,-28.21,-28.05,0,*76
1497586046.01,16740,18.13,73956.3,2.63,-28.21,-28.05,0,*78
1497586047.23,16741,18.13,73952.5,2.65,-28.09,-27.93,0,*75
1497586048.43,16742,18.13,73952.3,2.65,-28.15,-27.93,0,*7B
1497586049.68,16743,18.13,73950.0,2.63,-28.21,-27.93,0,*7B
1497586050.95,16744,18.13,73942.3,2.63,-28.21,-27.83,0,*7D
1497586052.18,16745,18.13,73942.8,2.65,-28.09,-27.77,0,*7B
1497586053.45,16746,18.13,73934.8,2.63,-28.05,-27.83,0,*79
1497586054.68,16747,18.06,73930.3,2.65,-27.99,-27.77,0,*7F
1497586055.9,16748,18.13,73934.3,2.65,-27.99,-27.77,0,*70
1497586057.1,16749,18.13,73934.8,2.65,-27.93,-27.77,0,*7B
1497586058.37,16750,18.13,73944.5,2.63,-27.99,-27.83,0,*74
1497586059.61,16751,18.13,73960.3,2.63,-27.83,-27.93,0,*7F
1497586060.81,16752,18.13,73946.5,2.65,-27.93,-27.93,0,*7B
1497586062.09,16753,18.13,73944.0,2.63,-28.05,-27.99,0,*76
1497586063.33,16754,18.13,73950.8,2.63,-28.15,-28.05,0,*7A
1497586064.61,16755,18.13,73952.8,2.63,-28.21,-28.05,0,*7C
1497586065.84,16756,18.13,73960.5,2.65,-28.15,-27.99,0,*74
1497586067.12,16757,18.13,73960.5,2.63,-28.21,-28.05,0,*7E
1497586068.4,16758,18.13,73958.8,2.63,-28.21,-28.05,0,*71
1497586069.64,16759,18.06,73952.0,2.63,-28.47,-28.37,0,*71
1497586070.89,16760,18.13,73950.8,2.65,-28.25,-28.09,0,*74
1497586072.14,16761,18.06,73942.0,2.63,-28.31,-28.05,0,*7A
1497586073.39,16762,18.13,73952.8,2.63,-28.31,-28.05,0,*79
1497586074.61,16763,18.13,73948.5,2.65,-28.15,-27.99,0,*72
1497586075.82,16764,18.13,73948.3,2.65,-28.15,-27.89,0,*74
1497586077.09,16765,18.13,73958.8,2.63,-28.21,-27.83,0,*7E
1497586078.34,16766,18.13,73952.8,2.63,-28.21,-27.93,0,*7C
1497586079.61,16767,18.13,73952.8,2.63,-28.21,-27.83,0,*7C
1497586080.89,16768,18.06,73954.8,2.63,-28.21,-27.83,0,*73
1497586082.09,16769,18.13,73956.8,2.65,-28.15,-27.55,0,*78
1497586083.36,16770,18.13,73956.0,2.63,-28.21,-27.61,0,*76
1497586084.61,16771,18.06,73954.5,2.63,-28.15,-27.35,0,*71
1497586085.89,16772,18.06,73954.5,2.63,-28.21,-27.35,0,*75
1497586087.11,16773,18.13,73960.3,2.65,-28.15,-27.39,0,*79
1497586088.36,16774,18.13,73960.8,2.65,-28.09,-27.45,0,*78
1497586089.61,16775,18.13,73956.3,2.67,-28.05,-27.51,0,*72
1497586090.84,16776,18.13,73948.5,2.65,-28.09,-27.55,0,*7B
1497586092.08,16777,18.13,73944.3,2.63,-28.15,-27.61,0,*76
1497586093.33,16778,18.13,73934.3,2.63,-27.99,-27.67,0,*74
1497586094.61,16779,18.13,73922.8,2.63,-28.05,-27.61,0,*79
1497586095.83,16780,18.13,73922.3,2.65,-27.99,-27.55,0,*74
1497586097.08,16781,18.13,73928.3,2.63,-28.05,-27.67,0,*78
1497586098.36,16782,18.13,73942.0,2.63,-28.05,-27.61,0,*7D
1497586099.56,16783,18.13,73942.8,2.65,-27.93,-27.55,0,*7D
1497586100.79,16784,18.13,73940.0,2.65,-27.99,-27.71,0,*76
1497586102.01,16785,18.13,73944.0,2.65,-27.99,-27.71,0,*77
1497586103.21,16786,18.13,73948.0,2.65,-28.15,-27.77,0,*79
1497586104.41,16787,18.13,73946.5,2.65,-28.15,-27.89,0,*79
1497586105.66,16788,18.13,73952.8,2.63,-28.15,-28.05,0,*7B